Погода в Вельске

Погода в Вельске : погода сейчас, прогноз погоды и архив. Всё, что Вы хотите узнать о погоде в Вельске!

Поиск расширенной информации на нашем сайте:

Другие новости

Новости СМИ2

Главная страница сайта

Новости сайта

03.07.2017

Напоминаем, что на нашем специализированном сайте Метеоцентр.Азия вы можете получить высокодетализированные автоматические прогнозы погоды по пунктам России, СНГ и мира в авиационном формате (включающие направление и скорость ветра, видимость, явления погоды, количество и форму облачности, нижнюю и верхнюю границу облачности).


Погода в Вельске - сегодня

Время (UTC), дата Ветер
(°,м/с) 
Видим.   Явления Облачность Т
(°С)
Тd
(°С)
f(%) Тe
(°С)
Pmin
(гПа)
dP
(гПа)
Po
(мм)
O2
(г/м3)
Тmin Tmax R s Состояние
почвы
06 16.04.18 тихо ()   20000 м    8/0 верхняя 
[Cs]
+0.4 -5.1 67 1021.6  -0.4  758  305           
09 16.04.18 090 (В) 20000 м    3/0 верхняя 
[Ci fib]
+5.6 -8.5 35 +5  1020.5  -0.9  757  300           
12 16.04.18 360 (С) 20000 м    8/0 верхняя 
[Cs]
+8 -9.6 28 +9  1019.3  -1.1  756  297           
18 16.04.18 тихо ()   10 км    4/0 средняя, верхняя 
[Ac trans|Ci fib]
+0.8 -8.7 49 +1  1018.1  -0.3  755  304           
00 17.04.18 тихо ()   20000 м    ясно 
-4.5 -6.9 83 -5  1018.3  755  310           
03 17.04.18 тихо ()   20000 м    8/6 570 м средняя 
[Sc|Ac trans]
-3.7 -5.7 86 -4  1018  -0.3  755  309  -4.8      мокрый или
старый снег
50-90% 
06 17.04.18 020 (С) 20000 м    3/0 верхняя 
[Ci fib]
+4.4 -5.5 49 +5  1018.1  0.5  755  300           
09 17.04.18 090 (В) 20000 м    ясно 
+10.7 -9.6 23 +12  1017.9  755  294           
12 17.04.18 330 (СЗ) 20000 м    3/0 верхняя 
[Ci fib]
+11.6 -8.7 23 +13  1017.7  0.1  755  293           
18 17.04.18 тихо ()   20000 м    3/0 верхняя 
[Ci fib]
+4 -5.2 51 +4  1017.7  0.4  755  300           
21 17.04.18 тихо ()   20000 м    ясно 
-0.3 -5.2 69 -0  1018.1  0.2  755  305           
00 18.04.18 тихо ()   20000 м    ясно 
-2.5 -5.6 79 -3  1017.7  -0.5  755  308           
03 18.04.18 тихо ()   20000 м    8/0 верхняя 
[Cs]
-1.5 -5.7 73 -2  1016.9  -0.7  754  306  -2.9      мокрый или
старый снег
50-90% 
06 18.04.18 050 (СВ) 20000 м    8/0 верхняя 
[Ci fib]
+7 -7.9 34 +7  1016.1  -0.5  754  297           
09 18.04.18 070 (В) 20000 м    8/0 верхняя 
[Ci fib]
+11.8 -7.5 25 +12  1015.2  -0.7  753  292           
12 18.04.18 190 (Ю) 20000 м    5/0 средняя, верхняя 
[Ac trans|Ci fib]
+14.2 -5.9 24 +15  1014.6  -0.5  753  289           
18 18.04.18 тихо ()   20000 м    ясно 
+3.2 -3.4 62 +3  1014.1  0.1  752  300           
21 18.04.18 280 (З) 20000 м    ясно 
-0.8 -5.1 73 1013.6  -0.7  752  304           
00 19.04.18 290 (З) 20000 м    ясно 
-2.1 -5.3 79 -2  1012.8  -0.9  751  306           
06 19.04.18 тихо ()   20000 м    ясно 
+8 -6 36 +8  1011.3  -0.4  750  294           
09 19.04.18 030 (СВ) 20000 м    ясно 
+12.7 -4.1 31 +13  1010.7  -0.4  750  289           
12 19.04.18 010 (С) 20000 м    5/3 600 м средняя 
[Cu med, cong|Ac trans]
+12.3 -4.6 30 +12  1010.6  0.1  750  290           
18 19.04.18 010 (С) 20000 м    9/5 600 м средняя 
[Sc|Ac trans]
+6 -3.9 49 +5  1013.3  2.1  752  297           
21 19.04.18 010 (С) 20000 м    3/0 средняя 
[Ac trans]
+2.5 -4.1 62 +1  1014.8  1.4  753  301           
00 20.04.18 010 (С) 20000 м    9/8 1110 м средняя 
[Sc|Ac trans]
+1.1 -6.1 59 +2  1015.6  0.7  753  303           
Время (UTC), дата Ветер
(°,м/с) 
Видим.   Явления Облачность Т
(°С)
Тd
(°С)
f(%) Тe
(°С)
Pmin
(гПа)
dP
(гПа)
Po
(мм)
O2
(г/м3)
Тmin Tmax R s Состояние
почвы

Для получения пояснительной информации подведите курсор к названию столбца.

ПОГОДА в Вельске - архив

Всё, что Вы хотите узнать о погоде в Вельске - удобно и подробно!

Выберите нужную дату (начиная с 1 января 2015* года) и нажмите кнопку "Найти".
Будут отображены архивные сводки погоды по пункту Вельск, начиная с указанной даты.


Отображать данные в формате CSV (для использования в таблицах Excel)


Внимание! Наш архив погоды предназначен исключительно для личного некоммерческого использования в познавательных целях. Если Вам необходимы официальные справки о состоянии погоды (для производственных, юридических, коммерческих и т.п. целей), обращайтесь в органы Росгидромета.

*Примечание: данная дата относится к архиву по метеостанциям СССР (Россия, СНГ, Балтия).
Архив по метеостанциям Зарубежной Европы и Азии (кроме Китая) хранится 10 дней, по другим регионам земного шара (Китай, Африка, Америка, Австралия, Океания) - 1 день.

Вельск - район местоположения метеостанции


Название, широта, долгота, высота метеостанции:
Вельск 61.1°ш. 42.1°д. 91 м над ур. моря [Российская Федерация]

Дополнительная информация

В oтличие oт бoльшинства пoгoдных сайтoв мы публикуем пoдрoбную метеoинфoрмацию в детальнoм прoфессиoнальнoм фoрмате.

Характеристики температуры и влажнoсти вoздуха измеряются на высoте 2 м в тени вдали oт зданий и деревьев.
Скoрoсть ветра измеряется на высoте 10 м (на урoвне рoста челoвека скoрoсть ветра ниже в 1.5-2 раза). Если метеoстанция нахoдится в гoрoде или в лесу, тo скoрoсть ветра занижена на 2-4 м/с пo сравнению с oткрытым местoм. Скoрoсть ветра над акватoриями крупных рек и oзёр, а также на вершинах хoлмoв на 2-5 м/с выше, чем в oбычных услoвиях.
Атмoсфернoе давление в разных тoчках местнoсти мoжет значительнo oтличаться oт давления на метеoстанции, в зависимoсти oт услoвий рельефа (при пoдъёме на 10 м давление пoнижается примернo на 1 мм рт.ст.).